Regional Weather Roundup
Issued by NWS

Home | Current Version | Previous Version | Text Only | Print | Product List | Glossary Off
Versions: 1 2 3 4 5 6 7 8 9 10 11 12 13 14 15 16 17 18 19 20 21 22 23 24 25 26 27 28 29 30 31 32 33 34 35 36 37 38 39 40 41 42 43 44 45 46 47 48 49 50

000
ASUS43 KMKX 210821
RWRWI

WISCONSIN REGIONAL WEATHER ROUNDUP
NATIONAL WEATHER SERVICE MILWAUKEE/SULLIVAN WI
300 AM CDT SAT OCT 21 2017

NOTE: "FAIR" INDICATES FEW OR NO CLOUDS BELOW 12,000 FEET WITH NO
SIGNIFICANT WEATHER AND/OR OBSTRUCTIONS TO VISIBILITY.

WIZ001-002-006>008-014>016-023>028-210900-
NORTHWEST WISCONSIN

CITY           SKY/WX    TMP DP  RH WIND       PRES   REMARKS
SUPERIOR ARPT  CLOUDY    63  49  59 S9        29.71S
ASHLAND        PTCLDY    65  45  48 S15G22    29.76S
HAYWARD        CLOUDY    60  49  66 S6        29.80R
SIREN          CLOUDY    63  49  62 S15G22    29.74F
CUMBERLAND     CLOUDY    55  48  76 S7        29.79F
RICE LAKE      CLOUDY    62  48  60 SE10G17   29.81S
CHETEK         CLOUDY    62  48  60 SE9       29.81S
LADYSMITH      CLOUDY    62  45  53 S9        29.85S
EAU CLAIRE     CLOUDY    63  46  54 S9        29.81F
MENOMONIE      CLOUDY    64  48  55 S16G23    29.80S
NEW RICHMOND   CLOUDY    62  49  63 S14       29.76F
OSCEOLA        CLOUDY    63  51  67 S10G18    29.76F
$$

WIZ003>005-009-010-017-018-210900-
NORTH CENTRAL WISCONSIN

CITY           SKY/WX    TMP DP  RH WIND       PRES   REMARKS
MANITOWISH WTR CLOUDY    61  44  52 S8        29.86F
ARBOR VITAE    CLOUDY    62  46  56 S9        29.87F
WOODRUFF       CLOUDY    62  46  56 S9        29.87F
RHINELANDER    PTCLDY    62  45  53 S8        29.90S
EAGLE RIVER    NOT AVBL
LAND O LAKES   MOCLDY    59  43  55 S5        29.90S
PHILLIPS       CLOUDY    60  44  55 S9        29.84F
TOMAHAWK       MOCLDY    57  45  63 CALM      29.89F
MEDFORD        LGT RAIN  58  46  64 S7        29.88S
MERRILL        CLOUDY    61  46  57 S5        29.90F
$$

WIZ029-030-035-036-043>047-210900-
CENTRAL WISCONSIN

CITY           SKY/WX    TMP DP  RH WIND       PRES   REMARKS
WAUSAU         CLOUDY    60  45  57 S8        29.90S
MOSINEE        CLOUDY    59  45  58 S9        29.92F
MARSHFIELD     PTCLDY    60  44  55 S8        29.88F
STEVENS POINT  MOCLDY    60  44  55 S6        29.93S
WAUPACA        CLOUDY    63  47  55 S6        29.94F
WAUTOMA        CLOUDY    64  47  53 S7        29.95S
WISC RAPIDS    CLOUDY    64  46  52 S12       29.92F
CAMP DOUGLAS   NOT AVBL
$$

WIZ011>013-019>022-031-037>040-048>050-210900-
NORTHEAST WISCONSIN

CITY           SKY/WX    TMP DP  RH WIND       PRES   REMARKS
ANTIGO         CLOUDY    51  46  82 SE7       29.94S
SHAWANO        CLOUDY    65  46  50 S5        29.94S
OCONTO         PTCLDY    61  48  62 CALM      29.94S
STURGEON BAY   MOCLDY    58  50  75 S10       29.97F
GREEN BAY      CLOUDY    65  48  54 S12       29.97R
MANITOWOC      CLOUDY    54  50  86 CALM      30.00S
APPLETON       CLOUDY    63  43  48 S10G18    29.96R
CLINTONVILLE   CLOUDY    63  45  51 S8        29.94S
OSHKOSH        CLOUDY    62  47  57 S12       29.96S
$$

WIZ032>034-041-042-053>061-210900-
SOUTHWEST WISCONSIN

CITY           SKY/WX    TMP DP  RH WIND       PRES   REMARKS
LA CROSSE      CLOUDY    66  49  54 S17G25    29.84F
SPARTA         MOCLDY    63  48  58 S12       29.89S
VIROQUA        CLOUDY    61  48  63 S13G18    29.90F
BOSCOBEL       PTCLDY    64  48  56 VRB3      29.92F
PRAIRIE DU CHI PTCLDY    64  47  53 SE9       29.89F
PLATTEVILLE    PTCLDY    61  50  67 S10       29.96S
$$

WIZ056-057-062-063-064-067-068-210900-
SOUTH CENTRAL WISCONSIN

CITY           SKY/WX    TMP DP  RH WIND       PRES   REMARKS
REEDSBURG      CLOUDY    64  47  55 S14G21    29.93F
BARABOO/DELLS  CLOUDY    63  45  52 S12       29.95S
LONE ROCK      MOCLDY    63  49  60 S6        29.95S
MINERAL POINT  CLOUDY    61  50  67 SE9       29.96S
MADISON        CLOUDY    63  48  58 S9        29.97F
MIDDLETON      CLOUDY    64  48  57 S10       29.97F
WATERTOWN      CLOUDY    60  49  65 S6        29.99F
MONROE         CLOUDY    61  46  59 S15G22    29.98S
JANESVILLE     PTCLDY    64  46  52 S10       30.00S
$$

WIZ051-052-058>065-066-070>072-210900-
SOUTHEAST WISCONSIN

CITY           SKY/WX    TMP DP  RH WIND       PRES   REMARKS
MILWAUKEE      CLOUDY    66  48  52 SW10      30.02F
WAUKESHA       CLOUDY    61  45  55 S5        30.02F
MILWAUKEE/TIMM CLOUDY    63  43  48 S7        30.02F
RACINE         CLOUDY    66  48  52 S9G20     30.03F
BURLINGTON     CLOUDY    62  49  63 S8        30.02S
KENOSHA        CLOUDY    65  47  52 S9        30.02F
FOND DU LAC    CLOUDY    64  44  48 S12G17    29.98R
SHEBOYGAN      MOCLDY    61  49  64 S12       30.00S
WEST BEND      CLOUDY    61  45  55 S5        30.01S
JUNEAU         MOCLDY    59  47  64 S8        30.01R
$$

LSZ147-162-210900-
LAKE SUPERIOR

STATION/POSITION TIME  TEMP    WIND        PRES    WAVE
                       AIR SEA DIR/SP/G            HT/PER
                 (UTC) (F)     (DEG/KT/KT) (MB)    (FT/S)
W MID LAKE BUOY  0750   57 52              1008.0S   2/ 5
DEVILS ISLAND    0800   66     190/ 10/ 13 1007.3R
PORT WING        0702          170/ 16/ 26 1006.4
SAXON HARBOR     0730   68     190/ 11/ 21 1007.5R
$$

LMZ867-665-643>646-210900-
LAKE MICHIGAN

STATION/POSITION TIME  TEMP    WIND        PRES    WAVE
                       AIR SEA DIR/SP/G            HT/PER
                 (UTC) (F)     (DEG/KT/KT) (MB)    (FT/S)
S GREEN BAY BUOY 0800   61 58  190/ 10/ 12 1014.2
N MID LAKE BUOY  0750   61 58  190/ 17/ 21 1015.6R   4/ 6
NORTHPORT PIER   0740   59     160/  6/ 11 1014.6S
KEWAUNEE LAKESHO 0754   54     170/ 10/ 11 1014.6R
SHEBOYGAN LAKESH 0800   57     180/ 19/ 19 1015.6F
PORT WASHINGTON  0740   57     190/  4/  6 1017.3S
ATWATER BUOY     0709   59 53  160/  8/ 10 1016.7R
MILWAUKEE LAKESH 0750   65     210/ 10/ 11   N/A
S MID LAKE BUOY  0750   63 61  190/ 16/ 17 1017.8R   2/ 4
KENOSHA   LAKESH 0800   66     200/  9/ 12 1016.6
$$

TC  - TEMPERATURE IN CELSIUS
VSB - VISIBILITY IN STATUTE MILES
WCI - WIND CHILL INDEX
HX  - HEAT INDEX




USA.gov is the U.S. government's official web portal to all federal, state and local government web resources and services.